{"data":{"norad_id":54092,"epoch":"2026-05-24T09:30:17.726400Z","epoch_age_seconds":134022,"freshness":"FRESH","line1":"1 54092U 22136AT  26144.39603850  .00072800  00000+0  41472-3 0  9992","line2":"2 54092  53.1725 159.4214 0003917  25.4938 334.6276 15.78306728201148","mean_motion":15.78306728,"eccentricity":0.0003917,"inclination_deg":53.1725,"raan_deg":159.4214,"arg_perigee_deg":25.4938,"mean_anomaly_deg":334.6276,"bstar":0.00041472,"rev_number":20114,"period_min":91.23701841053,"perigee_km":332.60830623816,"apogee_km":337.8675641624,"semimajor_km":6713.3749352003,"source":"CELESTRAK","updated_at":"2026-05-25T13:38:17.655787Z"}}